Temp
-18 -18 -18 -19 -19 -19 -19 -19 -21 -23 -24 -25 -28 -28 -28 -28 -28 -27 -27 -27 -26 -25 -24 -24 -24 -24 -23 -22 -22 -22 -21 -21 -21 -20 -20 -19 -18 -18 -19 -19 -19 -19 -19
-18 -18 -19 -19 -19 -19 -19 -21 -23 -24 -24 -25 -28 -29 -30 -29 -29 -29 -28 -28 -27 -26 -26 -25 -25 -25 -24 -23 -22 -22 -22 -21 -21 -21 -20 -19 -19 -19 -19 -19 -19 -19 -19
-18 -19 -19 -19 -19 -19 -20 -22 -23 -24 -25 -25 -27 -29 -30 -31 -31 -30 -29 -29 -28 -27 -27 -26 -26 -26 -25 -23 -23 -22 -22 -22 -21 -21 -20 -20 -20 -19 -19 -19 -19 -20 -20
-18 -19 -19 -19 -20 -20 -21 -23 -24 -24 -25 -26 -26 -28 -30 -31 -31 -31 -30 -29 -30 -29 -28 -27 -27 -26 -26 -24 -24 -23 -23 -22 -22 -21 -20 -20 -20 -20 -19 -20 -20 -21 -21
-19 -19 -19 -20 -20 -20 -21 -23 -24 -24 -24 -25 -26 -27 -28 -30 -31 -31 -30 -30 -30 -30 -29 -28 -28 -26 -26 -25 -24 -23 -23 -22 -22 -21 -20 -20 -20 -19 -19 -20 -20 -21 -21
-19 -19 -20 -20 -20 -20 -21 -23 -24 -24 -25 -25 -26 -26 -28 -30 -30 -30 -30 -30 -30 -29 -29 -29 -28 -27 -26 -25 -25 -23 -23 -22 -22 -21 -21 -20 -20 -20 -20 -20 -20 -21 -20
-19 -19 -20 -20 -20 -20 -21 -22 -24 -24 -25 -25 -26 -26 -27 -29 -30 -30 -30 -30 -30 -29 -29 -28 -27 -27 -26 -26 -25 -24 -23 -23 -22 -21 -21 -20 -20 -19 -20 -20 -20 -20 -20
-19 -19 -20 -20 -21 -20 -21 -22 -23 -25 -25 -25 -26 -26 -27 -28 -29 -29 -29 -29 -29 -29 -28 -28 -27 -27 -27 -26 -25 -24 -23 -23 -23 -21 -21 -21 -19 -19 -19 -20 -20 -20 -20
-19 -19 -20 -20 -21 -21 -21 -21 -22 -24 -25 -25 -26 -26 -27 -27 -29 -29 -29 -29 -28 -28 -28 -28 -27 -27 -26 -26 -25 -24 -24 -23 -22 -21 -20 -19 -19 -19 -19 -19 -20 -20 -19
-20 -20 -20 -20 -21 -21 -21 -21 -22 -23 -25 -26 -26 -26 -27 -27 -28 -29 -28 -28 -28 -28 -27 -27 -27 -27 -26 -26 -25 -25 -24 -23 -22 -21 -21 -20 -20 -19 -19 -19 -19 -19 -19
-20 -20 -20 -20 -21 -21 -21 -21 -22 -22 -24 -25 -26 -26 -26 -27 -28 -28 -27 -28 -28 -27 -27 -27 -27 -27 -27 -26 -26 -25 -24 -23 -22 -21 -21 -20 -19 -19 -20 -20 -19 -19 -20
-20 -20 -20 -21 -21 -21 -21 -21 -22 -22 -23 -25 -26 -26 -26 -27 -27 -27 -27 -27 -27 -27 -27 -27 -27 -27 -26 -26 -26 -25 -24 -23 -22 -21 -21 -20 -19 -19 -19 -19 -19 -20 -20
-20 -20 -21 -21 -21 -22 -21 -21 -22 -22 -22 -24 -25 -25 -26 -26 -27 -27 -27 -27 -27 -27 -27 -27 -26 -26 -26 -26 -25 -24 -23 -22 -21 -21 -20 -19 -19 -19 -19 -19 -19 -20 -20
-21 -20 -21 -21 -21 -21 -21 -21 -22 -22 -22 -23 -24 -25 -25 -26 -26 -26 -27 -27 -27 -27 -26 -26 -26 -26 -26 -25 -24 -23 -22 -21 -20 -20 -20 -19 -19 -19 -19 -19 -19 -20 -20
-21 -21 -21 -21 -21 -21 -21 -21 -21 -21 -22 -22 -23 -24 -25 -25 -26 -26 -26 -26 -26 -26 -26 -26 -26 -25 -25 -24 -23 -22 -21 -20 -20 -20 -20 -20 -19 -19 -19 -19 -19 -20 -20
-21 -21 -21 -21 -21 -21 -21 -22 -22 -22 -22 -22 -22 -22 -23 -25 -25 -25 -25 -25 -25 -25 -25 -25 -25 -24 -24 -23 -22 -21 -20 -20 -20 -20 -20 -20 -19 -19 -19 -19 -19 -19 -19
-21 -21 -21 -21 -21 -21 -21 -21 -22 -22 -22 -22 -22 -22 -22 -23 -23 -24 -25 -24 -25 -24 -24 -24 -23 -23 -22 -21 -21 -21 -20 -20 -20 -21 -20 -20 -20 -20 -20 -20 -20 -19 -20
-22 -21 -21 -21 -21 -21 -21 -22 -22 -22 -22 -22 -22 -22 -22 -22 -22 -23 -23 -23 -23 -23 -23 -23 -22 -22 -22 -21 -21 -21 -21 -21 -20 -20 -20 -20 -20 -20 -20 -20 -20 -20 -21
-22 -22 -22 -22 -22 -21 -21 -22 -22 -22 -23 -23 -22 -22 -22 -22 -22 -22 -22 -22 -22 -22 -22 -22 -22 -22 -22 -22 -21 -21 -21 -21 -20 -20 -20 -20 -20 -20 -20 -20 -21 -21 -21
-23 -22 -22 -22 -22 -22 -22 -22 -22 -22 -23 -23 -23 -22 -22 -22 -22 -22 -22 -22 -22 -22 -22 -22 -22 -22 -21 -21 -21 -21 -21 -21 -20 -20 -20 -20 -20 -20 -21 -21 -21 -21 -21
-23 -23 -23 -22 -22 -22 -22 -22 -22 -22 -22 -22 -22 -22 -22 -22 -22 -22 -22 -21 -21 -21 -21 -21 -21 -21 -21 -21 -21 -21 -21 -21 -21 -21 -20 -20 -21 -21 -21 -21 -21 -20 -20
-23 -24 -23 -23 -22 -22 -22 -22 -22 -22 -22 -22 -22 -22 -22 -22 -22 -22 -22 -22 -22 -21 -21 -21 -21 -21 -21 -21 -21 -21 -21 -21 -21 -21 -21 -21 -21 -21 -21 -21 -20 -20 -20
-24 -23 -23 -23 -23 -22 -22 -21 -21 -21 -21 -21 -21 -21 -22 -22 -22 -22 -21 -21 -21 -21 -21 -21 -21 -21 -21 -21 -21 -21 -21 -21 -21 -21 -21 -21 -21 -21 -20 -20 -20 -20 -19
-24 -24 -23 -23 -23 -23 -23 -23 -22 -21 -21 -21 -21 -21 -21 -21 -21 -21 -21 -21 -21 -21 -21 -21 -21 -21 -21 -21 -21 -21 -21 -21 -21 -20 -20 -20 -20 -20 -19 -19 -19 -19 -19
-25 -24 -24 -24 -23 -23 -23 -23 -23 -23 -22 -22 -21 -21 -21 -21 -21 -21 -21 -20 -20 -21 -21 -21 -21 -21 -21 -21 -20 -20 -20 -20 -20 -20 -20 -20 -20 -20 -19 -19 -19 -19 -19
-25 -25 -24 -24 -24 -23 -23 -23 -23 -23 -22 -22 -22 -21 -21 -21 -21 -21 -20 -20 -20 -20 -21 -21 -21 -21 -21 -20 -20 -20 -20 -20 -20 -20 -20 -20 -19 -19 -19 -19 -19 -19 -19
Height
5635 5626 5616 5604 5592 5579 5566 5550 5532 5514 5495 5472 5454 5445 5439 5435 5433 5434 5436 5439 5446 5453 5463 5475 5489 5499 5510 5521 5530 5541 5550 5560 5570 5576 5583 5593 5603 5613 5623 5630 5638 5646 5653
5629 5618 5606 5594 5580 5566 5550 5532 5516 5498 5481 5461 5443 5432 5425 5420 5416 5414 5415 5418 5424 5433 5441 5451 5466 5479 5494 5506 5518 5529 5538 5548 5559 5567 5574 5583 5593 5603 5612 5620 5628 5635 5642
5622 5610 5597 5584 5569 5553 5536 5520 5503 5488 5471 5453 5436 5422 5412 5404 5399 5394 5394 5399 5405 5414 5423 5433 5446 5461 5476 5492 5505 5517 5528 5537 5548 5558 5565 5575 5583 5593 5603 5611 5618 5624 5630
5615 5602 5589 5575 5559 5543 5526 5510 5495 5480 5464 5447 5430 5415 5401 5392 5388 5384 5383 5386 5390 5397 5407 5418 5429 5445 5462 5479 5493 5506 5517 5527 5538 5549 5559 5567 5576 5586 5595 5603 5609 5615 5620
5609 5596 5582 5567 5551 5536 5518 5502 5488 5473 5458 5442 5427 5411 5397 5386 5381 5379 5378 5378 5381 5387 5396 5406 5418 5434 5451 5468 5482 5495 5508 5519 5529 5542 5553 5561 5570 5580 5590 5596 5603 5609 5613
5604 5590 5577 5562 5546 5530 5512 5496 5482 5467 5453 5438 5423 5409 5396 5384 5377 5375 5374 5375 5378 5382 5389 5399 5411 5426 5443 5460 5473 5487 5501 5512 5522 5535 5546 5555 5565 5575 5583 5591 5598 5605 5610
5600 5586 5573 5558 5543 5527 5509 5492 5476 5463 5449 5434 5421 5407 5395 5383 5375 5372 5372 5373 5376 5380 5387 5395 5407 5420 5437 5452 5467 5479 5494 5505 5517 5528 5538 5550 5560 5570 5580 5588 5595 5603 5609
5597 5584 5570 5557 5542 5525 5508 5490 5472 5459 5446 5433 5420 5407 5395 5384 5376 5371 5371 5373 5376 5380 5386 5395 5406 5419 5432 5447 5460 5474 5488 5499 5511 5523 5532 5545 5555 5565 5576 5584 5592 5599 5606
5594 5582 5570 5556 5541 5525 5509 5492 5473 5457 5445 5433 5421 5409 5399 5388 5379 5374 5373 5375 5378 5382 5388 5396 5406 5418 5431 5444 5458 5471 5483 5496 5507 5518 5531 5542 5553 5563 5572 5581 5589 5596 5602
5593 5581 5569 5556 5541 5526 5511 5494 5476 5459 5446 5435 5424 5413 5403 5394 5385 5380 5379 5380 5383 5387 5392 5399 5408 5420 5433 5446 5458 5470 5482 5494 5504 5517 5529 5540 5551 5563 5572 5580 5587 5593 5599
5591 5580 5568 5556 5542 5529 5514 5498 5481 5463 5450 5439 5428 5418 5409 5401 5394 5388 5387 5388 5390 5394 5399 5407 5415 5426 5438 5450 5461 5472 5482 5492 5504 5515 5527 5537 5548 5560 5571 5578 5584 5590 5594
5591 5580 5569 5557 5545 5532 5518 5503 5488 5471 5455 5445 5435 5425 5417 5411 5405 5401 5398 5398 5400 5404 5409 5416 5425 5435 5446 5456 5465 5474 5483 5493 5503 5515 5526 5536 5548 5557 5567 5574 5581 5586 5590
5591 5580 5569 5559 5548 5536 5523 5511 5496 5480 5464 5452 5443 5435 5428 5422 5417 5415 5414 5413 5413 5416 5422 5429 5437 5446 5454 5462 5470 5478 5486 5496 5506 5517 5525 5535 5547 5556 5566 5575 5580 5584 5588
5591 5582 5571 5561 5551 5540 5529 5518 5505 5491 5476 5462 5452 5445 5439 5434 5430 5427 5426 5427 5428 5431 5436 5442 5448 5455 5461 5468 5475 5482 5490 5500 5509 5518 5527 5538 5547 5556 5566 5572 5578 5582 5587
5591 5583 5573 5563 5554 5544 5534 5524 5514 5502 5489 5476 5465 5455 5450 5446 5443 5440 5438 5439 5441 5443 5447 5452 5457 5462 5469 5474 5480 5487 5496 5505 5514 5522 5530 5538 5548 5557 5565 5572 5577 5582 5587
5591 5584 5575 5566 5557 5548 5539 5530 5522 5512 5502 5491 5480 5470 5461 5457 5454 5452 5451 5451 5452 5454 5458 5461 5466 5471 5476 5481 5487 5495 5503 5510 5518 5525 5533 5542 5550 5557 5565 5571 5576 5580 5585
5591 5585 5577 5569 5561 5553 5545 5536 5529 5521 5512 5504 5495 5486 5478 5471 5467 5464 5463 5463 5464 5466 5469 5472 5475 5479 5484 5490 5496 5502 5509 5515 5522 5529 5537 5545 5552 5558 5564 5569 5574 5578 5582
5591 5586 5580 5572 5564 5557 5550 5543 5536 5528 5521 5514 5507 5501 5495 5489 5484 5480 5477 5476 5476 5477 5480 5482 5485 5488 5493 5498 5504 5509 5515 5521 5528 5534 5541 5547 5552 5558 5563 5568 5571 5574 5579
5591 5586 5582 5576 5569 5562 5555 5549 5543 5537 5530 5525 5519 5514 5508 5504 5501 5498 5495 5494 5492 5492 5493 5495 5497 5500 5503 5508 5512 5517 5523 5528 5533 5538 5543 5548 5553 5557 5561 5564 5568 5572 5578
5590 5587 5583 5578 5574 5567 5562 5556 5551 5546 5540 5536 5530 5526 5521 5518 5515 5512 5511 5509 5508 5508 5509 5510 5511 5513 5515 5518 5521 5525 5529 5533 5537 5541 5545 5549 5553 5556 5559 5562 5567 5572 5578
5590 5588 5584 5581 5577 5573 5568 5563 5559 5554 5551 5546 5542 5537 5533 5529 5526 5523 5521 5521 5520 5520 5520 5521 5522 5524 5525 5527 5529 5532 5534 5537 5540 5543 5545 5548 5551 5554 5558 5562 5567 5573 5578
5591 5588 5586 5582 5578 5575 5572 5569 5565 5561 5558 5554 5550 5546 5543 5540 5536 5534 5531 5530 5529 5528 5528 5528 5528 5529 5531 5532 5533 5535 5536 5538 5540 5542 5544 5547 5550 5555 5559 5564 5569 5573 5578
5591 5589 5586 5584 5581 5577 5574 5572 5569 5566 5563 5560 5556 5554 5551 5548 5546 5543 5540 5539 5537 5536 5535 5534 5534 5533 5533 5534 5535 5536 5537 5539 5541 5543 5546 5550 5554 5557 5561 5565 5569 5573 5577
5592 5589 5588 5585 5583 5580 5578 5575 5571 5569 5567 5565 5562 5559 5557 5554 5552 5549 5546 5545 5543 5542 5541 5540 5540 5539 5539 5539 5539 5540 5542 5543 5545 5547 5550 5553 5556 5559 5562 5565 5569 5572 5576
5593 5591 5589 5587 5585 5582 5580 5577 5575 5573 5569 5567 5565 5562 5561 5558 5555 5552 5551 5549 5548 5546 5545 5544 5543 5543 5542 5542 5543 5543 5544 5546 5548 5550 5552 5554 5556 5559 5561 5564 5567 5571 5575
5598 5595 5592 5589 5587 5585 5583 5580 5577 5575 5572 5569 5566 5564 5562 5560 5559 5558 5555 5553 5551 5550 5548 5547 5547 5546 5545 5545 5545 5546 5546 5547 5549 5550 5552 5553 5555 5557 5559 5562 5565 5569 5573
Wind_Speed
43 45 48 52 53 52 59 65 65 65 64 63 52 49 48 48 49 50 52 54 55 58 64 70 69 68 65 61 56 52 56 54 47 44 46 52 54 53 51 49 49 48 47
45 47 50 57 52 57 65 61 61 57 59 59 48 42 38 39 41 43 47 50 51 52 54 60 71 70 65 63 55 52 51 54 52 43 44 45 51 51 48 47 48 50 51
48 49 52 56 55 60 64 58 56 55 56 56 50 42 41 40 37 37 41 45 47 50 52 54 65 68 66 64 55 49 51 51 52 48 43 40 48 49 45 42 41 43 47
51 52 55 57 57 62 60 53 50 52 53 53 50 45 38 32 28 24 24 29 36 44 51 54 55 68 66 62 55 49 46 48 50 51 42 39 45 45 40 37 37 38 42
52 53 56 58 58 63 62 51 48 48 50 49 47 45 39 28 22 19 18 21 27 34 41 44 50 62 64 61 58 53 45 44 48 50 43 40 44 42 35 34 34 33 35
53 54 56 58 58 62 65 50 48 48 48 47 45 42 38 30 19 16 14 14 19 26 32 39 47 50 63 58 56 52 47 44 46 50 47 41 44 39 36 34 32 31 31
53 54 56 56 57 61 65 60 46 47 47 46 44 40 36 29 19 11 11 12 14 19 26 32 42 49 60 60 58 55 49 47 46 51 50 44 45 41 38 34 33 33 31
52 54 54 54 56 59 63 65 52 42 44 41 42 37 34 28 20 8 6 9 11 15 22 30 37 48 55 57 55 53 52 48 47 52 51 46 48 46 41 38 35 33 33
50 51 52 53 54 57 60 64 59 46 38 38 40 35 33 28 20 9 1 6 9 13 19 27 35 41 46 48 47 49 49 46 48 55 49 49 49 47 43 38 34 31 31
48 49 50 53 51 54 58 62 62 50 40 34 37 32 30 29 21 10 6 8 11 14 18 24 32 38 41 42 42 44 44 45 49 51 47 44 47 46 42 36 31 29 29
46 47 49 50 49 51 55 59 61 54 43 34 34 30 28 28 23 17 13 14 16 18 21 27 32 36 38 38 37 37 40 45 47 46 40 43 48 45 39 36 32 30 29
44 45 46 46 47 49 50 55 59 60 43 36 31 30 27 27 24 23 20 18 20 22 25 28 33 35 34 34 34 35 38 41 43 42 39 46 47 43 40 36 31 27 25
41 43 43 44 45 46 47 51 55 58 58 36 30 29 29 25 26 22 23 23 24 27 29 31 31 31 31 31 33 33 36 38 40 39 40 48 47 42 37 32 28 22 26
37 40 41 42 41 42 44 46 50 54 57 54 34 27 28 27 25 25 22 22 23 27 29 28 26 26 27 29 29 31 36 38 37 38 40 44 44 40 36 32 27 23 28
34 36 39 38 37 40 39 40 46 49 53 55 53 33 27 24 26 25 24 24 23 24 25 24 23 25 26 27 28 32 35 34 35 34 39 43 42 39 36 32 28 23 30
30 32 36 35 36 36 38 37 39 44 48 50 51 53 39 28 24 23 24 24 24 24 23 23 23 24 25 26 28 30 32 32 32 35 38 40 39 37 34 31 28 25 26
26 28 32 34 33 34 34 37 35 38 42 43 46 49 50 49 34 26 24 22 21 20 20 20 22 23 25 26 27 28 30 30 32 35 36 37 36 33 32 30 28 26 29
22 24 27 31 32 32 31 34 37 35 36 38 38 41 45 46 47 44 35 28 26 23 20 20 20 22 24 26 27 27 28 30 32 33 34 32 31 30 28 26 25 27 33
19 20 22 28 29 30 29 31 33 36 38 37 34 36 38 40 40 40 39 38 35 31 28 26 26 26 26 27 27 28 28 28 29 29 28 28 27 26 25 24 27 30 34
15 16 18 23 24 27 28 31 31 36 40 39 37 33 33 33 33 32 31 29 29 28 26 24 23 23 23 23 23 23 22 22 23 22 22 23 24 24 24 26 29 32 35
15 13 15 16 18 19 25 26 26 30 29 29 34 34 33 32 30 27 23 21 21 20 18 16 15 14 13 13 14 14 16 17 18 19 20 22 23 23 26 28 31 33 32
15 8 11 14 15 15 16 17 20 21 20 24 26 27 27 27 27 25 24 22 19 14 11 8 7 7 8 10 11 12 14 16 18 19 19 20 22 25 26 29 29 29 28
13 14 8 10 14 15 16 13 13 15 14 15 15 19 25 23 22 20 19 17 16 15 14 13 12 12 11 10 10 10 11 12 13 16 17 19 20 23 24 24 25 25 26
16 13 15 13 7 11 14 17 18 11 9 11 12 14 13 11 16 12 15 16 13 11 8 6 5 6 8 10 12 12 13 14 15 15 15 16 18 19 20 20 22 24 26
20 16 17 14 15 14 12 13 13 16 18 14 8 7 9 13 18 18 12 18 14 12 6 5 4 3 4 7 10 11 12 14 15 16 17 18 18 19 21 23 23 23 25
30 29 23 20 19 16 16 16 16 15 14 16 18 16 6 12 11 12 12 10 12 11 6 6 4 1 3 4 6 9 11 12 14 15 17 18 20 21 22 23 24 24 26
Wind_Direction
332 331 331 329 327 325 323 323 323 324 330 330 311 300 289 278 272 267 261 255 247 242 239 232 226 228 230 229 230 233 230 232 230 232 233 227 226 226 229 231 230 228 228
334 335 335 334 332 331 330 330 331 334 337 340 330 310 301 290 284 273 261 253 246 241 237 232 221 223 223 223 224 227 229 231 231 229 230 226 226 227 228 230 230 232 231
340 340 339 338 336 336 337 335 338 336 337 343 342 327 307 297 291 279 260 250 243 235 231 231 224 218 217 216 217 220 225 227 228 226 226 223 222 224 226 227 229 228 229
344 343 343 342 340 341 342 339 340 342 341 342 344 342 327 304 295 287 263 248 240 232 227 227 223 213 210 210 211 213 216 222 221 224 220 222 217 218 221 222 224 228 233
346 345 346 345 345 347 348 339 338 339 340 343 344 345 342 323 297 287 271 251 235 227 223 222 216 212 203 206 209 209 211 218 219 217 215 219 212 211 213 215 221 224 219
349 348 348 348 349 351 353 341 340 337 339 342 344 347 347 342 307 284 267 248 230 224 218 217 208 204 200 202 209 212 208 215 215 211 213 212 206 203 206 211 213 215 206
350 349 350 350 351 353 357 354 339 342 343 344 346 348 351 347 339 287 260 239 226 213 207 206 203 199 199 200 205 211 209 211 212 207 210 206 199 198 200 202 205 207 198
351 351 351 351 353 356 358 360 350 343 348 351 353 353 357 353 353 321 255 223 210 201 197 196 195 198 201 205 205 204 203 206 207 206 207 203 193 195 196 197 200 203 201
353 352 352 353 355 359 0 2 0 351 351 355 356 0 4 4 7 13 123 183 177 178 180 187 193 195 197 198 195 195 199 204 204 204 201 197 194 194 194 196 199 203 209
354 354 354 356 356 1 2 3 6 2 357 359 2 7 11 14 18 35 98 135 154 158 162 168 175 178 179 179 184 192 197 201 200 201 198 197 195 198 195 198 203 211 220
355 356 357 357 358 1 5 6 9 11 9 8 9 17 21 26 33 53 88 115 131 141 149 155 158 161 166 172 179 187 192 195 195 197 195 194 193 196 198 202 210 219 228
354 357 358 358 1 3 7 10 13 16 17 20 19 27 31 38 51 64 81 105 120 133 143 148 152 158 162 168 173 179 185 184 190 188 192 192 192 194 198 204 212 221 224
354 358 360 1 3 5 10 13 17 20 25 24 26 39 41 47 59 72 78 92 108 122 132 139 146 153 159 165 170 170 172 178 182 186 187 190 193 195 198 205 214 220 204
354 358 0 4 5 6 11 15 19 23 27 31 34 39 48 52 62 74 83 89 110 122 130 134 138 144 154 159 156 160 167 175 180 183 183 186 191 193 196 203 208 207 200
354 358 2 6 8 10 11 15 19 23 29 32 38 42 49 58 64 72 82 92 103 116 126 133 137 142 148 151 153 158 167 176 177 179 180 185 189 191 198 201 205 202 199
354 359 3 7 10 11 16 16 17 23 26 33 38 43 48 59 69 76 80 92 103 112 119 126 133 141 145 149 154 158 165 168 173 177 178 183 186 192 198 201 207 210 207
355 0 5 8 12 12 18 22 19 21 25 29 40 45 49 51 58 70 81 91 101 111 119 129 136 140 144 150 156 158 163 168 172 172 178 183 190 196 199 205 211 219 213
355 2 8 11 16 15 20 27 27 27 29 31 37 46 50 54 55 59 69 81 91 101 110 119 127 132 138 144 152 158 162 164 167 174 182 188 193 198 203 211 219 216 207
355 7 11 19 23 23 27 32 33 37 39 37 41 46 51 53 56 60 60 64 75 88 98 107 116 122 129 136 144 151 158 165 174 181 187 192 197 203 211 216 212 204 196
355 15 19 29 34 35 36 40 42 48 45 42 43 45 49 52 55 57 60 66 72 76 82 92 103 116 128 139 149 159 167 175 181 189 195 200 206 214 216 208 197 192 193
3 19 28 29 41 42 36 46 57 51 36 38 43 43 45 48 51 54 56 61 70 78 84 90 103 118 131 145 158 172 183 192 197 201 205 211 217 209 195 186 188 192 193
354 24 26 30 34 36 35 36 49 52 53 61 51 49 47 45 45 46 51 59 67 75 82 95 119 144 170 181 191 201 209 213 214 213 209 200 190 184 182 187 192 193 194
8 8 22 30 24 27 30 40 32 36 53 60 36 40 45 49 45 42 43 50 56 63 77 85 92 102 109 120 131 144 149 154 160 165 170 175 181 183 189 191 191 193 196
29 23 20 17 16 21 15 13 23 30 29 31 33 28 47 45 28 34 58 46 40 46 53 65 90 120 135 142 144 149 154 155 158 163 173 182 186 188 190 192 196 197 197
29 27 31 27 19 19 5 1 13 13 13 8 30 353 354 355 14 47 84 67 41 34 38 56 78 104 149 160 163 163 164 165 168 175 180 185 191 195 197 199 197 196 194
39 37 29 22 23 20 15 8 2 359 359 359 356 0 337 339 350 12 19 47 32 22 47 64 55 77 161 170 188 191 186 189 192 198 201 200 199 197 197 200 198 190 191